Orbital Elements at Epoch 2459000.5 (2020-May-31.0) TDB
Reference: JPL 16 (heliocentric ecliptic J2000)
Element | Value | Uncertainty (1-sigma) | Units |
e | .05823599035644276 | 3.7651e-08 | |
a | 2.314154764337294 | 1.6689e-08 | au |
q | 2.179387669798031 | 8.2558e-08 | au |
i | 7.049143922346197 | 5.5277e-06 | deg |
node | 191.8826544768256 | 3.1964e-05 | deg |
peri | 273.74031270382 | 5.8137e-05 | deg |
M | 112.2465542592113 | 4.8774e-05 | deg |
tp | 2458599.580163988669 (2019-Apr-26.08016399) | 0.00017376 | TDB |
period | 1285.840281838628 3.52 | 1.391e-05 3.808e-08 | d yr |
n | .2799725635327233 | 3.0287e-09 | deg/d |
Q | 2.448921858876556 | 1.7661e-08 | au |
|
| | Orbit Determination Parameters
Additional Information
|